FW1747 Weather Reports


Display with metric or nautical units.
time (UTC)temp
F
wind
direction
speed
MPH
gust
MPH
rain 1hr
in
rain 24hr
in
rain mn
in
humidity
%
barometer
mb
20260903023029 56 221 0.0 3.0 0.00 0.44 0.44 94 1009.3
20260903021533 56 221 0.0 0.0 0.02 0.44 0.44 94 1009.3
20260903020032 56 211 0.0 1.0 0.02 0.44 0.44 94 1009.1
20260903014528 56 201 0.0 6.0 0.02 0.44 0.44 94 1008.9
20260903013027 56 194 2.0 7.0 0.02 0.44 0.44 93 1009.0
20260903011537 56 240 0.0 3.0 0.00 0.42 0.42 94 1008.8
20260903010024 57 181 2.0 7.0 0.00 0.42 0.42 94 1008.8
20260903004529 57 204 4.0 8.0 0.01 0.42 0.42 94 1008.6
20260903003022 57 215 1.0 6.0 0.02 0.42 0.42 94 1008.6
20260903001522 57 205 2.0 7.0 0.04 0.42 0.42 94 1008.5
20260903000023 57 182 0.0 6.0 0.12 0.42 0.42 93 1008.3
20260902234521 57 210 0.0 6.0 0.12 0.41 0.41 92 1008.2
20260902233029 56 222 2.0 11.0 0.13 0.40 0.40 92 1008.1
20260902231519 58 187 3.0 11.0 0.12 0.38 0.38 92 1007.9
20260902230020 58 188 1.0 7.0 0.05 0.30 0.30 92 1007.5
20260902224516 58 218 0.0 8.0 0.04 0.28 0.28 92 1007.4
20260902223015 58 172 1.0 9.0 0.02 0.27 0.27 91 1007.3
20260902221518 58 1 0.0 5.0 0.01 0.26 0.26 91 1007.2
20260902220013 58 209 1.0 7.0 0.01 0.25 0.25 91 1007.3
20260902214513 58 144 0.0 4.0 0.01 0.25 0.25 91 1007.3
20260902213012 58 201 0.0 5.0 0.01 0.25 0.25 91 1007.2
20260902211511 58 187 0.0 7.0 0.01 0.25 0.25 91 1007.3
20260902210010 58 134 2.0 15.0 0.00 0.24 0.24 91 1007.2
20260902204516 57 207 4.0 13.0 0.00 0.24 0.24 91 1006.9
20260902203009 57 169 0.0 4.0 0.00 0.24 0.24 91 1006.8
20260902201519 57 152 0.0 5.0 0.01 0.24 0.24 91 1006.7
20260902200007 57 204 1.0 7.0 0.02 0.24 0.24 91 1006.6
20260902194508 57 167 1.0 5.0 0.04 0.24 0.24 91 1006.5
20260902193006 57 158 1.0 6.0 0.06 0.24 0.24 91 1006.5
20260902191513 57 155 2.0 8.0 0.09 0.23 0.23 90 1006.4
20260902190003 56 89 2.0 12.0 0.13 0.22 0.22 90 1006.3
20260902184501 56 135 1.0 9.0 0.11 0.20 0.20 89 1006.6
20260902183101 56 152 0.0 2.0 0.10 0.18 0.18 87 1007.0
20260902181613 57 169 0.0 2.0 0.08 0.15 0.15 87 1006.9
20260902174600 57 221 0.0 3.0 0.07 0.09 0.09 86 1007.2
20260902173058 57 214 0.0 5.0 0.08 0.08 0.08 85 1007.2
20260902171607 57 212 0.0 5.0 0.07 0.07 0.07 83 1007.5
20260902170055 57 199 0.0 10.0 0.04 0.04 0.04 82 1007.5
20260902164559 58 204 1.0 8.0 0.02 0.02 0.02 79 1007.3
20260902163053 59 230 1.0 8.0 0.00 0.00 0.00 77 1007.2
20260902161600 60 205 0.0 4.0 0.00 0.00 0.00 74 1006.9
20260902160052 60 224 0.0 0.0 0.00 0.00 0.00 74 1006.8
20260902154608 60 224 0.0 1.0 0.00 0.00 0.00 74 1007.0
20260902153048 60 164 0.0 0.0 0.00 0.00 0.00 74 1007.2
20260902151551 60 162 0.0 0.0 0.00 0.00 0.00 75 1007.4
20260902150043 59 162 0.0 0.0 0.00 0.00 0.00 75 1007.5
20260902144547 59 162 0.0 1.0 0.00 0.00 0.00 75 1007.6
20260902143041 58 61 0.0 1.0 0.00 0.00 0.00 77 1007.7
20260902141540 58 93 0.0 4.0 0.00 0.00 0.00 77 1007.8
20260902140041 58 115 0.0 0.0 0.00 0.00 0.00 77 1007.8
20260902134537 58 108 0.0 3.0 0.00 0.00 0.00 77 1008.0
20260902133035 58 111 0.0 2.0 0.00 0.00 0.00 77 1008.3
20260902131533 58 91 0.0 2.0 0.00 0.00 0.00 77 1008.4
20260902130031 58 127 0.0 3.0 0.00 0.00 0.00 76 1008.7
20260902124533 59 136 0.0 4.0 0.00 0.00 0.00 76 1008.9
20260902123028 59 96 0.0 2.0 0.00 0.00 0.00 75 1009.1
20260902121526 59 108 0.0 4.0 0.00 0.00 0.00 75 1009.4
20260902120024 59 106 0.0 2.0 0.00 0.00 0.00 74 1009.4
20260902114523 59 131 0.0 1.0 0.00 0.00 0.00 73 1009.7
20260902113021 59 77 0.0 1.0 0.00 0.00 0.00 73 1009.8
20260902111519 59 117 0.0 0.0 0.00 0.00 0.00 74 1010.1
20260902110017 58 165 0.0 0.0 0.00 0.00 0.00 75 1010.2
20260902104516 58 165 0.0 3.0 0.00 0.00 0.00 76 1010.5
20260902103022 58 144 0.0 3.0 0.00 0.00 0.00 77 1010.6
20260902101524 57 134 0.0 0.0 0.00 0.00 0.00 77 1010.7
20260902100012 57 134 0.0 0.0 0.00 0.00 0.00 77 1010.8
20260902094510 57 181 0.0 0.0 0.00 0.00 0.00 77 1010.9
20260902093008 57 181 0.0 0.0 0.00 0.00 0.00 77 1011.0
20260902091507 57 181 0.0 0.0 0.00 0.00 0.00 77 1011.2
20260902090007 57 181 0.0 0.0 0.00 0.00 0.00 76 1011.3
20260902084504 57 86 0.0 2.0 0.00 0.00 0.00 76 1011.4
20260902083002 57 224 0.0 0.0 0.00 0.00 0.00 76 1011.6
20260902081501 57 224 0.0 0.0 0.00 0.00 0.00 76 1011.7
20260902080059 58 224 0.0 0.0 0.00 0.00 0.00 75 1011.7
20260902074600 58 224 0.0 0.0 0.00 0.00 0.00 75 1011.6
20260902073057 58 224 0.0 0.0 0.00 0.00 0.00 73 1011.7
20260902071602 59 238 0.0 2.0 0.00 0.00 0.00 73 1011.8
20260902070051 59 210 2.0 7.0 0.00 0.00 0.00 73 1012.0
20260902064601 59 236 0.0 6.0 0.00 0.00 0.00 74 1012.2
20260902063055 59 182 0.0 8.0 0.00 0.00 0.00 74 1012.3
20260902061552 60 182 1.0 5.0 0.00 0.00 0.00 74 1012.3
20260902060059 60 208 0.0 6.0 0.00 0.00 0.00 74 1012.5
20260902054549 60 211 0.0 4.0 0.00 0.00 0.00 74 1012.5
20260902053052 61 229 0.0 3.0 0.00 0.00 0.00 74 1012.6
20260902051547 60 224 1.0 5.0 0.00 0.00 0.00 74 1012.7
20260902050103 60 204 0.0 0.0 0.00 0.00 0.00 75 1012.7
20260902044605 61 204 0.0 0.0 0.00 0.00 0.00 74 1012.6
20260902043045 61 204 0.0 1.0 0.00 0.00 0.00 74 1012.5
20260902041546 61 205 0.0 0.0 0.00 0.00 0.00 74 1012.5
20260902040051 61 205 0.0 0.0 0.00 0.00 0.00 74 1012.4
20260902034554 61 231 0.0 1.0 0.00 0.00 0.00 73 1012.5
20260902033044 61 221 0.0 0.0 0.00 0.00 0.00 73 1012.4
20260902031546 61 221 0.0 0.0 0.00 0.00 0.00 73 1012.5
20260902030043 61 204 0.0 1.0 0.00 0.00 0.00 72 1012.4
20260902024552 61 219 0.0 5.0 0.00 0.00 0.00 71 1012.3